Havre, MT

4:37 AM MDT on March 28, 2017 (GMT -0600)
Havre City-County

Weather History for KHVR - September, 2013

Change the Weather History Date:

Sunday, September 22, 2013

  Actual Average Record
Temperature  
Mean Temperature 62 °F 54 °F  
Max Temperature 74 °F 69 °F 92 °F (1938)
Min Temperature 49 °F 39 °F 18 °F (1895)
Degree Days  
Heating Degree Days 3 11  
Month to date heating degree days 42 172  
Since 1 July heating degree days 60 255  
Cooling Degree Days 0 0  
Month to date cooling degree days 70 17  
Year to date cooling degree days 445 384  
Growing Degree Days 11 (Base 50)    
Moisture  
Dew Point 42 °F    
Average Humidity 57    
Maximum Humidity 86    
Minimum Humidity 27    
Precipitation  
Precipitation 0.02 in 0.04 in 1.60 in (1945)
Month to date precipitation 0.99 0.84  
Year to date precipitation 16.09 9.51  
Snow  
Snow 0.00 in 0.00 in 5.90 in (1934)
Month to date snowfall 0.0 0.1  
Since 1 July snowfall 0.0 0.1  
Since 1 September snowfall 0.0 0.1  
Snow Depth 0.00 in    
Sea Level Pressure  
Sea Level Pressure 29.57 in    
Wind  
Wind Speed 7 mph (WSW)    
Max Wind Speed 16 mph    
Max Gust Speed 23 mph    
Visibility 10 miles    
Events Rain    
T = Trace of Precipitation, MM = Missing Value Source: NWS Daily Summary

Daily Weather History Graph

Daily Weather History Graph

Search for Another Location

Airport or City:

Trip Planner

Search our weather history database for the weather conditions in past years. The results will help you decide how hot, cold, wet, or windy it might be!

Date:

Astronomy

Sep. 22, 2013 Rise Set
Actual Time 7:06 AM MDT 7:16 PM MDT
Civil Twilight 6:34 AM MDT 7:47 PM MDT
Nautical Twilight 5:57 AM MDT 8:24 PM MDT
Astronomical Twilight 5:19 AM MDT 9:02 PM MDT
Moon 8:47 PM MDT (9/22) 10:49 AM MDT (9/22)
Length of Visible Light 13h 12m
Length of Day
12h 10m
Waning Gibbous, 88% of the Moon is Illuminated
Sep 22
Waning Gibbous
Sep 26
Last Quarter
Oct 4
New
Oct 11
First Quarter
Oct 18
Full

Hourly Weather History & Observations

Time (MDT) Temp. Dew Point Humidity Pressure Visibility Wind Dir Wind Speed Gust Speed Precip Events Conditions
12:53 AM 57.9 °F 43.0 °F 58% 29.54 in 10.0 mi Calm Calm - N/A   Clear
1:53 AM 55.9 °F 41.0 °F 57% 29.55 in 10.0 mi Calm Calm - N/A   Clear
2:53 AM 52.0 °F 42.1 °F 69% 29.54 in 10.0 mi South 3.5 mph - N/A   Clear
3:53 AM 51.1 °F 42.1 °F 71% 29.54 in 10.0 mi Calm Calm - N/A   Clear
4:53 AM 51.1 °F 43.0 °F 74% 29.55 in 10.0 mi Calm Calm - N/A   Clear
5:53 AM 50.0 °F 44.1 °F 80% 29.59 in 10.0 mi WSW 9.2 mph - N/A   Clear
6:53 AM 57.0 °F 41.0 °F 55% 29.62 in 10.0 mi SW 10.4 mph - N/A   Mostly Cloudy
7:53 AM 52.0 °F 46.0 °F 80% 29.60 in 10.0 mi WNW 5.8 mph - 0.00 in   Mostly Cloudy
8:53 AM 53.1 °F 46.9 °F 80% 29.60 in 10.0 mi WNW 3.5 mph - 0.01 in Rain Light Rain
9:53 AM 55.0 °F 48.9 °F 80% 29.58 in 10.0 mi SSE 4.6 mph - 0.01 in Rain Light Rain
10:53 AM 61.0 °F 46.0 °F 58% 29.58 in 10.0 mi WSW 3.5 mph - N/A   Scattered Clouds
11:53 AM 66.0 °F 43.0 °F 43% 29.58 in 10.0 mi West 6.9 mph - N/A   Clear
12:53 PM 69.1 °F 41.0 °F 36% 29.55 in 10.0 mi West 3.5 mph 16.1 mph N/A   Clear
1:53 PM 71.1 °F 39.0 °F 31% 29.53 in 10.0 mi West 8.1 mph - N/A   Clear
2:53 PM 73.9 °F 37.9 °F 27% 29.52 in 10.0 mi West 16.1 mph - N/A   Clear
3:53 PM 73.9 °F 37.0 °F 26% 29.52 in 10.0 mi WNW 10.4 mph - N/A   Clear
4:53 PM 73.0 °F 37.0 °F 27% 29.51 in 10.0 mi WNW 15.0 mph - N/A   Clear
5:53 PM 72.0 °F 39.0 °F 30% 29.53 in 10.0 mi West 10.4 mph - N/A   Overcast
6:53 PM 64.0 °F 36.0 °F 35% 29.55 in 10.0 mi West 10.4 mph - N/A   Scattered Clouds
7:53 PM 60.1 °F 41.0 °F 49% 29.59 in 10.0 mi SW 6.9 mph - 0.00 in   Overcast
8:53 PM 62.1 °F 39.9 °F 44% 29.60 in 10.0 mi WSW 10.4 mph 21.9 mph 0.00 in   Overcast
9:53 PM 57.0 °F 45.0 °F 64% 29.60 in 10.0 mi SW 8.1 mph - 0.00 in   Partly Cloudy
10:53 PM 54.0 °F 46.0 °F 75% 29.60 in 10.0 mi WSW 8.1 mph - N/A   Clear
11:53 PM 50.0 °F 46.0 °F 86% 29.61 in 10.0 mi SW 10.4 mph - N/A   Clear